Regional Weather Roundup
Issued by NWS

Home | Current Version | Previous Version | Text Only | Print | Product List | Glossary Off
Versions: 1 2 3 4 5 6 7 8 9 10 11 12 13 14 15 16 17 18 19 20 21 22 23 24 25 26 27 28 29 30 31 32 33 34 35 36 37 38 39 40 41 42 43 44 45 46 47 48 49 50

000
ASUS43 KLOT 280400
RWRIL

ILLINOIS REGIONAL WEATHER ROUNDUP
NATIONAL WEATHER SERVICE CHICAGO/ROMEOVILLE IL
1000 PM CST TUE JAN 27 2015

NOTE: "FAIR" INDICATES FEW OR NO CLOUDS BELOW 12,000 FEET WITH NO
SIGNIFICANT WEATHER AND/OR OBSTRUCTIONS TO VISIBILITY.

* THESE STATIONS ARE NOT UNDER NWS QUALITY CONTROL. THEY ALSO MAY NOT
  REPORT WEATHER SUCH AS PRECIPITATION OR FOG.

ILZ001-002-007-009-015-016-024-280500-
NORTHWEST ILLINOIS

CITY           SKY/WX    TMP DP  RH WIND       PRES   REMARKS
MOLINE         CLOUDY    27  22  81 SE8       30.23S WCI  19
STERLING*      CLOUDY    28  21  74 CALM      30.24S
$$

ILZ003-004-008-010-011-017-018-280500-
NORTH CENTRAL ILLINOIS

CITY           SKY/WX    TMP DP  RH WIND       PRES   REMARKS
ROCKFORD       CLOUDY    24  19  81 SE9       30.26S WCI  14
$$

ILZ005-006-012>014-019>023-280500-
NORTHEAST ILLINOIS

CITY           SKY/WX    TMP DP  RH WIND       PRES   REMARKS
CHICAGO-OHARE  PTCLDY    22  17  81 CALM      30.25R
CHICAGO-MIDWAY PTCLDY    28  18  66 CALM      30.26R
AURORA         PTCLDY    20  13  74 CALM      30.26R
WAUKEGAN       CLOUDY    22  18  85 CALM      30.25R
DUPAGE AIRPORT PTCLDY    17  13  84 CALM      30.24R
WHEELING       MOCLDY    21  16  81 CALM      30.27R
NORTHERLY ISL    N/A     27  18  69 NE6         N/A  WCI  21
$$

LMZ740>746-280500-
SOUTHERN LAKE MICHIGAN

STATION/POSITION SKY/WX   TEMP    WIND        PRES    VSBY  WAVE
                          AIR SEA DIR/SP/G                  HT/PER
                          (F)     (DEG/KT/KT) (MB)    (MI)  (FT/S)
WAUKEGAN HARBOR            27      60/  4/  7   N/A
HARRISON CRIB              27      30/  7/ 10   N/A
BURNHAM HARBOR             27      20/  4/  9   N/A
CALUMET HARBOR             27      40/  7/  9   N/A
MICHIGAN CITY              27      30/  9/ 11   N/A
$$

ILZ025>027-034>036-040-047-049-050-058-095>099-280500-
WEST-CENTRAL ILLINOIS

CITY           SKY/WX    TMP DP  RH WIND       PRES   REMARKS
QUINCY         CLEAR     28  25  88 E8        30.21F FOG     WCI  20
$$

ILZ028>032-037-038-041>044-048-051>054-059>061-280500-
CENTRAL ILLINOIS

CITY           SKY/WX    TMP DP  RH WIND       PRES   REMARKS
DECATUR        PTCLDY    26  23  88 E5        30.26R WCI  20
PEORIA         CLOUDY    31  24  75 E5        30.26R WCI  26
SPRINGFIELD    CLOUDY    30  25  81 SE5       30.25R WCI  25
TAYLORVILLE    NOT AVBL
$$

ILZ033-039-045-046-055>057-062-063-280500-
EAST-CENTRAL ILLINOIS

CITY           SKY/WX    TMP DP  RH WIND       PRES   REMARKS
CHAMPAIGN      CLEAR     23  19  85 CALM      30.25R
MATTOON        CLEAR     25  20  81 CALM      30.24R
$$

ILZ079-100>102-280500-
SOUTHWEST ILLINOIS

CITY           SKY/WX    TMP DP  RH WIND       PRES   REMARKS
ALTON          PTCLDY    30  27  86 CALM      30.24S
BELLEVILLE     CLEAR     27  26  99 NE1       30.25R
CAHOKIA*       CLEAR     29  25  85 CALM      30.26R
$$

ILZ064>066-069>071-074>076-080>082-084>086-088>090-092>094-280500-
SOUTH-CENTRAL ILLINOIS

CITY           SKY/WX    TMP DP  RH WIND       PRES   REMARKS
CARBONDALE     CLEAR     31  25  78 CALM      30.25S
MT. VERNON     CLEAR     27  21  80 NE7       30.25S WCI  19
$$

ILZ067-068-072-073-078-083-087-091-280500-
SOUTHEAST ILLINOIS

CITY           SKY/WX    TMP DP  RH WIND       PRES   REMARKS
LAWRENCEVILLE  PTCLDY    30  24  78 NE6       30.27R WCI  24
$$

ABBREVIATIONS USED IN REMARKS
   TC - TEMPERATURE IN CELSIUS
  WCI - WIND CHILL INDEX
   HX - HEAT INDEX
  VSB - VISIBILITY
$$




USA.gov is the U.S. government's official web portal to all federal, state and local government web resources and services.